sat.trackr.live / text

‹ back to catalog

ION SCV-014

NORAD 62630 · 2025-009X

PAYLOAD ACTIVE UNKNOWN

§ Identity

Operator
Country
IT
Launch date
2025-01-14
Launch site
AFWTR
Launch vehicle
Mass (kg)
RCS (m²)

External: N2YO · Heavens-Above · Gunter

§ Orbital elements

Epoch: 2026-09-22T16:35:00.973536Z

Period
95.65 min
Inclination
97.4767°
Eccentricity
0.0005280
Mean motion
15.05470802 rev/d
Perigee alt
546.4 km
Apogee alt
553.7 km
Semi-major
6,928.2 km
B*
8.6510e-5
RAAN
335.8954°
Arg perigee
152.8172°
Mean anomaly
207.3332°
Rev number
9,265

§ Raw data

ION SCV-0141 62630U 25009X   26265.69098349  .00001184  00000+0  86510-4 0  99992 62630  97.4767 335.8954 0005280 152.8172 207.3332 15.05470802 92651

JSON: /api/v1/satellites/62630 · /tle

For live sub-satellite position, see the globe view (requires WebGL).

§ Visibility from observer

Set your observer location to see the next 7 days of passes ≥ 10°. The values pass through the URL so the page stays shareable.

No JS? Fill the form by hand. The geolocation button needs JavaScript.

§ Radio — SatNOGS DB

ModeDescriptionDownlinkUplink
FSK AX.100 Mode 5 Mode U - FSK1k2 AX.100 401.415 MHz

1 transmitter · refreshed weekly from db.satnogs.org